Weather History for Kalispell, MT

Change the Weather History Date:

Sunday, December 30, 2012

  Actual Average Record
Temperature  
Mean Temperature 23 °F 22 °F  
Max Temperature 26 °F 29 °F 48 °F (1929)
Min Temperature 20 °F 14 °F -35 °F (1968)
Degree Days  
Heating Degree Days 42 43  
Month to date heating degree days 1089 1268  
Since 1 July heating degree days 3069 3472  
Cooling Degree Days 0 0  
Month to date cooling degree days 0 0  
Year to date cooling degree days 192 147  
Moisture  
Dew Point 21 °F    
Average Humidity 91    
Maximum Humidity 100    
Minimum Humidity 81    
Precipitation  
Precipitation T in 0.05 in 0.52 in (1993)
Month to date precipitation 1.19 1.51  
Year to date precipitation 20.33 16.94  
Snow  
Snow 2.00 in - - ()
Month to date snowfall 8.5  
Year to date snowfall 35.9  
Since 1 July snowfall 10.8  
Snow Depth 0.00 in    
Sea Level Pressure  
Sea Level Pressure 30.21 in    
Wind  
Wind Speed 0 mph (WSW)    
Max Wind Speed 2 mph    
Max Gust Speed 2 mph    
Visibility 9 miles    
Events Snow    
T = Trace of Precipitation, MM = Missing Value Source: NWS Daily Summary

Daily Weather History Graph

Daily Weather History Graph

Search for Another Location

Airport:

Trip Planner

Search our weather history database for the weather conditions in past years. The results will help you decide how hot, cold, wet, or windy it might be!

Date:

Astronomy

Dec. 30, 2012 Rise Set
Actual Time 8:28 AM MST 4:51 PM MST
Civil Twilight 7:51 AM MST 5:28 PM MST
Nautical Twilight 7:11 AM MST 6:08 PM MST
Astronomical Twilight 6:33 AM MST 6:46 PM MST
Moon 7:40 PM MST (12/30) 9:27 AM MST (12/30)
Length of Visible Light 9h 36m
Length of Day
8h 23m
Waning Gibbous, 95% of the Moon is Illuminated
Dec 30
Waning Gibbous
Jan 4
Last Quarter
Jan 11
New
Jan 18
First Quarter
Jan 26
Full

Hourly Weather History & Observations

Time (MST) Temp. Windchill Dew Point Humidity Pressure Visibility Wind Dir Wind Speed Gust Speed Precip Events Conditions
12:28 AM 23.0 °F - 21.2 °F 93% 30.07 in 10.0 mi Calm Calm - N/A   Overcast
12:39 AM 24.8 °F - 21.2 °F 86% 30.06 in 10.0 mi Calm Calm - N/A   Overcast
12:46 AM 24.8 °F - 21.2 °F 86% 30.06 in 10.0 mi Calm Calm - N/A   Overcast
12:53 AM 23.0 °F - 21.2 °F 93% 30.06 in 10.0 mi Calm Calm - N/A   Overcast
12:55 AM 23.0 °F - 21.9 °F 96% 30.17 in 10.0 mi Calm Calm - N/A   Overcast
1:06 AM 24.8 °F - 21.2 °F 86% 30.07 in 10.0 mi Calm Calm - N/A   Overcast
1:55 AM 24.1 °F - 21.9 °F 91% 30.17 in 10.0 mi Calm Calm - N/A   Overcast
2:55 AM 24.1 °F - 21.0 °F 88% 30.19 in 10.0 mi Calm Calm - N/A   Overcast
3:55 AM 25.0 °F - 19.9 °F 81% 30.21 in 10.0 mi Calm Calm - N/A   Overcast
4:55 AM 23.0 °F 18.4 °F 21.0 °F 92% 30.21 in 10.0 mi SSW 3.5 mph - N/A   Overcast
5:55 AM 21.9 °F - 19.9 °F 92% 30.22 in 10.0 mi Calm Calm - N/A   Overcast
6:55 AM 23.0 °F 18.4 °F 19.9 °F 88% 30.22 in 10.0 mi WNW 3.5 mph - N/A   Overcast
8:55 AM 21.9 °F - 19.9 °F 92% 30.25 in 10.0 mi Calm Calm - 0.00 in   Overcast
9:55 AM 23.0 °F - 19.9 °F 88% 30.26 in 9.0 mi Calm Calm - 0.00 in Snow Light Snow
10:55 AM 24.1 °F - 19.9 °F 84% 30.28 in 9.0 mi Calm Calm - 0.00 in Snow Light Snow
11:55 AM 24.1 °F - 19.9 °F 84% 30.27 in 10.0 mi Calm Calm - 0.00 in Snow Light Snow
12:55 PM 25.0 °F - 21.0 °F 85% 30.26 in 6.0 mi Calm Calm - 0.00 in Snow Light Snow
1:55 PM 26.1 °F - 21.9 °F 84% 30.24 in 5.0 mi Calm Calm - 0.00 in Snow Light Snow
2:55 PM 26.1 °F - 21.0 °F 81% 30.25 in 7.0 mi Calm Calm - 0.00 in   Overcast
3:55 PM 25.0 °F - 23.0 °F 92% 30.26 in 8.0 mi Calm Calm - 0.00 in Snow Light Snow
4:55 PM 23.0 °F - 21.0 °F 92% 30.27 in 10.0 mi Calm Calm - 0.00 in   Overcast
5:55 PM 24.1 °F - 21.0 °F 88% 30.27 in 10.0 mi Calm Calm - N/A   Overcast
6:55 PM 23.0 °F - 21.0 °F 92% 30.28 in 10.0 mi Calm Calm - 0.00 in   Unknown
7:55 PM 21.9 °F - 21.0 °F 96% 30.27 in 10.0 mi Calm Calm - N/A   Overcast
8:55 PM 23.0 °F - 21.0 °F 92% 30.27 in 10.0 mi Calm Calm - N/A   Overcast
9:55 PM 21.9 °F - 19.9 °F 92% 30.27 in 10.0 mi Calm Calm - N/A   Overcast
10:55 PM 21.0 °F - 19.9 °F 96% 30.28 in 10.0 mi Calm Calm - N/A   Overcast
11:56 PM 21.0 °F - 19.9 °F 96% 30.29 in 10.0 mi Calm Calm - N/A   Unknown